Regional Weather Roundup
Issued by NWS State College, PA

Home | Current Version | Previous Version | Text Only | Print | Product List | Glossary On
Versions: 1 2 3 4 5 6 7 8 9 10 11 12 13 14 15 16 17 18 19 20 21 22 23 24 25 26 27 28 29 30 31 32 33 34 35 36 37 38 39 40 41 42 43 44 45 46 47 48 49 50
000
ASUS41 KCTP 261003
RWRCTP

REGIONAL WEATHER ROUNDUP
NATIONAL WEATHER SERVICE STATE COLLEGE PA
600 AM EDT SAT MAY 26 2018

Note: "fair" indicates few or no clouds below 12,000 feet with no
significant weather and/or obstructions to visibility.

* = STATION THAT DOES NOT REPORT PRECIPITATION /E.G. RAIN...SNOW...ETC/
    THUNDER OR FOG.

PAZ002>004-007>009-013>016-020>023-029>032-261100-
WESTERN PENNSYLVANIA

CITY           SKY/WX    TMP DP  RH WIND       PRES   REMARKS
ERIE           FAIR      67  51  56 S8        29.81R
MEADVILLE      FAIR      63  54  72 S7        29.85S
FRANKLIN*      FAIR      58  54  86 S5        29.87F
NEW CASTLE     FAIR      56  56 100 MISG      29.86F
BEAVER COUNTY  NOT AVBL
BUTLER*        FAIR      62  60  93 S5        29.88S
PITTSBURGH INT FAIR      67  63  87 CALM      29.87S
PITTSBURGH     FAIR      65  64  97 S6        29.87S
INDIANA*       CLOUDY    66  66 100 SW9       29.93R FOG
LATROBE        FAIR      66  66 100 S6        29.90S
WASHINGTON CO* FAIR      66  64  93 CALM      29.91S
$$

PAZ004>006-010>012-017>019-024>028-033>037-041-042-045-046-049>053-261100-
CENTRAL PENNSYLVANIA

CITY           SKY/WX    TMP DP  RH WIND       PRES   REMARKS
BRADFORD       FAIR      47  46  97 CALM      29.89S
DUBOIS         FAIR      58  56  93 CALM      29.88S
CLEARFIELD     FAIR      58  56  93 CALM      29.89  FOG
JOHNSTOWN      FAIR      65  61  87 SW8       29.93R
ALTOONA        FAIR      67  62  84 W5        29.91R
STATE COLLEGE  CLOUDY    64  63  94 CALM      29.88S
WILLIAMSPORT   FAIR      57  54  89 CALM      29.85R
SELINSGROVE    FAIR      60  59  96 W5        29.85S FOG
FT INDIANTOWN  FAIR      63  62  99 CALM      29.85S
CAPITAL CITY   FAIR      68  64  87 CALM      29.85R
HARRISBURG     MOCLDY    68  65  90 CALM      29.84R
YORK           FAIR      67  65  93 CALM      29.86R
$$

PAZ038>040-043-044-047-048-054-055-060>062-067>071-261100-
EASTERN PENNSYLVANIA

CITY           SKY/WX    TMP DP  RH WIND       PRES   REMARKS
SCRANTON       FAIR      63  61  93 CALM      29.85R
MOUNT POCONO   FAIR      62  61  96 W6        29.89R
ALLENTOWN      FAIR      65  61  87 CALM      29.84S FOG
QUAKERTOWN*    SUNNY     64  64 100 CALM      29.85S
READING        FAIR      67  66  97 CALM      29.83S
LANCASTER      FAIR      66  65  96 CALM      29.85S FOG
COATESVILLE    FAIR      68  66  94 CALM      29.88S
POTTSTOWN      FAIR      68  66  93 S3        29.87R
BLUE BELL      FAIR      66  64  94 CALM      29.87R
DOYLESTOWN     FAIR      68  65  90 CALM      29.84S
WILLOW GROVE   NOT AVBL
NORTH PHILA    FAIR      70  64  81 S3        29.86S
PHILADELPHIA   FAIR      69  65  86 S6        29.85S
$$




USA.gov is the U.S. government's official web portal to all federal, state and local government web resources and services.